AirNav   Air Wisconsin pilot careers
 
 349 users online  

63OH White's Airport
Darbyville, Ohio, USA

GOING TO DARBYVILLE?


FAA INFORMATION EFFECTIVE 07 DECEMBER 2017

Location

FAA Identifier: 63OH
Lat/Long: 39-42-10.2230N / 083-05-38.0000W
39-42.170383N / 083-05.633333W
39.7028397 / -83.0938889
(estimated)
Elevation: 815 ft. / 248 m (estimated)
Variation: 05W (1990)
From city: 1 mile NE of DARBYVILLE, OH
Time zone: UTC -5 (UTC -4 during Daylight Saving Time)
Zip code: 43113

Airport Operations

Airport use: Private use. Permission required prior to landing
Activation date: 10/1994
Control tower: no
ARTCC: INDIANAPOLIS CENTER
FSS: DAYTON FLIGHT SERVICE STATION
Attendance: UNATNDD
Wind indicator: yes
Segmented circle: no

Airport Communications

WX AWOS-3 at LCK (10 nm NE): 132.750 (614-492-2441)
WX AWOS-3 at TZR (12 nm N): 135.925 (614-878-1722)
WX AWOS-3 at RZT (16 nm S): 119.225 (740-779-1364)
WX AWOS-3PT at I23 (17 nm SW): 118.775
WX ASOS at CMH (20 nm NE): 124.6 (614-338-4083)

Nearby radio navigation aids

VOR radial/distance  VOR name  Freq  Var
XUBr338/(11.8)YELLOW BUD VOR112.5005W
SGHr107/35.6SPRINGFIELD VOR/DME113.2004W
APEr227/35.6APPLETON VORTAC116.7006W
MXQr067/36.6MIDWEST VOR/DME112.9004W

 
NDB name  Hdg/Dist  Freq  Var  ID
COBBS242/4.225307WDD -.. -..
BOUTN149/8.723005WBU -... ..-
COURT HOUSE072/15.141406WCSS -.-. ... ...
WAVERLY353/33.038506WEOP . --- .--.
CLARK COUNTY112/33.234104WCCJ -.-. -.-. .---
NEWARK242/34.952406WHEH .... . ....
HILLSBORO039/37.427805WHOC .... --- -.-.

Airport Services

Runway Information

Runway 15/33

Dimensions: 2800 x 75 ft. / 853 x 23 m
Surface: turf
RUNWAY 15  RUNWAY 33
Traffic pattern: leftleft
Obstructions: none30 ft. plines, 600 ft. from runway

Airport Ownership and Management from official FAA records

Ownership: Privately-owned
Owner: SCOTT WHITE
8187 ST RT 316 WEST
ORIENT, OH 43146
Phone 740-983-3907
Manager: SCOTT WHITE
8187 ST RT 316 WEST
ORIENT, OH 43146
Phone 740-983-3907

Instrument Procedures

There are no published instrument procedures at 63OH.

Some nearby airports with instrument procedures:

KLCK - Rickenbacker International Airport (10 nm NE)
KTZR - Bolton Field Airport (12 nm N)
KCYO - Pickaway County Memorial Airport (12 nm SE)
KRZT - Ross County Airport (16 nm S)
I23 - Fayette County Airport (17 nm SW)
KCMH - John Glenn Columbus International Airport (20 nm NE)
 
Loc | Ops | Rwys | IFR | FBO | Links
Com | Nav | Svcs | Stats | Notes


 
Area around 63OH (White's Airport)
 
Road maps at: MapQuest Bing Google
 
Aerial photo
No photo
 
Sectional chart

 
Airport distance calculator
Flying to White's Airport? Find the distance to fly.

From to 63OH

Sunrise and sunset
Times for 13-Dec-2017
 Local
(UTC-5)
 Zulu
(UTC)
Morning civil twilight07:1512:15
Sunrise07:4612:46
Sunset17:0722:07
Evening civil twilight17:3822:38

Current date and time
Zulu (UTC)  13-Dec-2017 08:17:53
Local (UTC-5)  13-Dec-2017 03:17:53
 
METAR
KLCK 
11nm NE 
130755Z AUTO 28009KT 10SM OVC044 M07/M12 A2993 RMK AO2 T10671119
KTZR 
11nm N 
130755Z AUTO 28006KT 10SM OVC038 M07/M12 A2993 RMK AO2 T10681121
KRZT 
16nm S 
130755Z AUTO 30007KT 10SM OVC048 M07/M13 A2995 RMK AO2
KLHQ 
20nm E 
130753Z AUTO 28007KT 10SM OVC046 M07/M12 A2992 RMK AO2 SLP143 T10671122
KCMH 
20nm NE 
130751Z 28009KT 9SM -SN SCT029 OVC044 M07/M11 A2992 RMK AO2 SLP142 P0000 T10671106 $
TAF
KLCK 
11nm NE 
130542Z 1306/1406 28008KT P6SM BKN022 OVC045 FM130900 25007KT P6SM FEW080 FM131300 20009KT P6SM OVC080 FM131800 19011KT P6SM BKN120 FM132300 20011KT P6SM VCSH OVC050 FM140100 23012G20KT P6SM -SHSN OVC040 FM140400 27014G22KT P6SM VCSH OVC022
NOTAMs
Click for the latest NOTAMs
NOTAMs are issued by the DoD/FAA and will open in a separate window not controlled by AirNav.

 

 
 

Would you like to see your business listed on this page?

 If your business provides an interesting product or service to pilots, flight crews, aircraft, or users of the White's Airport, you should consider listing it here.  To start the listing process, click on the button below
 
Add a business
 

Other Pages about White's Airport

Update a link
 
Copyright © AirNav, LLC. All rights reserved. Privacy Policy  Contact